Regional Weather Roundup
Issued by NWS Charleston, WV

Home | Current Version | Previous Version | Graphics & Text | Print | Product List | Glossary On
Versions: 1 2 3 4 5 6 7 8 9 10 11 12 13 14 15 16 17 18 19 20 21 22 23 24 25 26 27 28 29 30 31 32 33 34 35 36 37 38 39 40 41 42 43 44 45 46 47 48 49 50
000
ASUS41 KRLX 201710
RWRRLX
West Virginia Regional Weather Roundup
National Weather Service Charleston WV
100 PM EDT MON APR 20 2015

Note: "fair" indicates few or no clouds below 12,000 feet with no
significant weather and/or obstructions to visibility.

WVZ003-201800-
Northern Panhandle of West Virginia

CITY           SKY/WX    TMP DP  RH WIND       PRES   REMARKS
WHEELING       NOT AVBL
$$

WVZ009-201800-
Northwest West Virginia

CITY           SKY/WX    TMP DP  RH WIND       PRES   REMARKS
PARKERSBURG    PTSUNNY   71  52  50 SW22G35   29.54S
$$

WVZ006-201800-
Western West Virginia

CITY           SKY/WX    TMP DP  RH WIND       PRES   REMARKS
HUNTINGTON     PTSUNNY   69  52  54 SW17G26   29.56F
$$

WVZ015-201800-
West Central West Virginia

CITY           SKY/WX    TMP DP  RH WIND       PRES   REMARKS
CHARLESTON     PTSUNNY   71  49  45 SW21G28   29.56F
$$

WVZ022-031-201800-
North Central West Virginia

CITY           SKY/WX    TMP DP  RH WIND       PRES   REMARKS
CLARKSBURG     PTSUNNY   73  53  49 SW20G30   29.53S
MORGANTOWN     CLOUDY    74  48  39 SW14G22   29.53S
$$

WVZ025-035-042-045-201800-
Southern West Virginia

CITY           SKY/WX    TMP DP  RH WIND       PRES   REMARKS
BECKLEY        PTSUNNY   69  47  45 W20G25    29.64F
LOGAN          PTSUNNY   70  52  52 S12G18    29.58S
BLUEFIELD      PTSUNNY   69  46  43 W23G32    29.68F
LEWISBURG      PTSUNNY   73  51  45 SW18G25   29.64F
$$

WVZ047-201800-
Northern Mountains of West Virginia

CITY           SKY/WX    TMP DP  RH WIND       PRES   REMARKS
ELKINS         PTSUNNY   71  48  43 S13G22    29.57F
$$

WVZ052-201800-
Eastern Panhandle of West Virginia

CITY           SKY/WX    TMP DP  RH WIND       PRES   REMARKS
MARTINSBURG    SUNNY     68  58  70 SE6       29.61F
PETERSBURG     PTSUNNY   73  53  49 S9        29.56F
$$


USA.gov is the U.S. government's official web portal to all federal, state and local government web resources and services.